Location: *
(42.2744°N, 74.9225°W)
Time: 10:19:36
(UTC+00:00)

Daily predictions for brighter satellites

Satellite Brightness Start Highest point End
(mag) Time Altitude Azimuth Time Altitude Azimuth Time Altitude Azimuth
Cosmos 1110 Rocket 4.4 23:43:56 10° N 23:48:58 44° ENE 23:53:56 10° SE
Okean 1-7 Rocket 4.0 23:48:17 10° N 23:52:28 41° ENE 23:56:36 10° SSE
HJ-1C 3.5 23:50:39 10° SSE 23:53:54 54° ENE 23:57:11 10° N
ATLAS 3B CENTAUR R/B 4.4 23:52:33 10° WSW 23:56:01 13° SW 23:58:36 10° S
